Time,TemperatureF,DewpointF,PressureIn,WindDirection,WindDirectionDegrees,WindSpeedMPH,WindSpeedGustMPH,Humidity,HourlyPrecipIn,Conditions,Clouds,dailyrainin,SoftwareType,DateUTC
2013-09-15 00:03:00,81.9,76.0,29.96,SE,143,0.0,-999.0,82,-99.99,,,0.00,weatherlink.com 1.10,2013-09-15 04:03:00,
2013-09-15 00:18:00,81.8,76.0,29.96,SE,129,0.0,-999.0,82,-99.99,,,0.00,weatherlink.com 1.10,2013-09-15 04:18:00,
2013-09-15 00:33:00,81.6,76.0,29.96,SE,134,0.0,-999.0,82,-99.99,,,0.00,weatherlink.com 1.10,2013-09-15 04:33:00,
2013-09-15 00:48:00,81.4,76.0,29.96,SE,134,0.0,-999.0,84,-99.99,,,0.00,weatherlink.com 1.10,2013-09-15 04:48:00,
2013-09-15 01:03:00,81.6,76.0,29.96,SE,133,0.0,-999.0,84,-99.99,,,0.00,weatherlink.com 1.10,2013-09-15 05:03:00,
2013-09-15 01:18:00,81.6,76.0,29.96,SE,126,0.0,-999.0,84,-99.99,,,0.00,weatherlink.com 1.10,2013-09-15 05:18:00,
2013-09-15 01:33:00,81.6,77.0,29.96,SE,128,0.0,-999.0,85,-99.99,,,0.00,weatherlink.com 1.10,2013-09-15 05:33:00,
2013-09-15 01:48:00,81.5,77.0,29.95,ESE,121,1.0,-999.0,85,-99.99,,,0.00,weatherlink.com 1.10,2013-09-15 05:48:00,
2013-09-15 02:03:00,81.5,77.0,29.95,SSE,154,0.0,-999.0,85,-99.99,,,0.00,weatherlink.com 1.10,2013-09-15 06:03:00,
2013-09-15 02:18:00,81.2,76.0,29.94,SE,140,0.0,-999.0,85,-99.99,,,0.00,weatherlink.com 1.10,2013-09-15 06:18:00,
2013-09-15 02:33:00,81.4,77.0,29.94,SE,140,0.0,-999.0,86,-99.99,,,0.00,weatherlink.com 1.10,2013-09-15 06:33:00,
2013-09-15 02:48:00,81.5,77.0,29.94,SE,126,0.0,-999.0,87,-99.99,,,0.00,weatherlink.com 1.10,2013-09-15 06:48:00,
2013-09-15 03:03:00,81.4,78.0,29.94,East,92,0.0,-999.0,88,-99.99,,,0.00,weatherlink.com 1.10,2013-09-15 07:03:00,
2013-09-15 03:18:00,81.3,76.0,29.92,NNW,345,0.0,-999.0,84,-99.99,,,0.00,weatherlink.com 1.10,2013-09-15 07:18:00,
2013-09-15 03:34:00,80.3,71.0,29.92,ESE,115,0.0,-999.0,73,-99.99,,,0.00,weatherlink.com 1.10,2013-09-15 07:34:00,
2013-09-15 03:49:00,79.3,71.0,29.92,East,84,2.0,-999.0,76,-99.99,,,0.00,weatherlink.com 1.10,2013-09-15 07:49:00,
2013-09-15 04:04:00,78.8,70.0,29.92,SE,144,0.0,-999.0,75,-99.99,,,0.00,weatherlink.com 1.10,2013-09-15 08:04:00,
2013-09-15 04:19:00,78.6,70.0,29.92,East,91,0.0,-999.0,76,-99.99,,,0.00,weatherlink.com 1.10,2013-09-15 08:19:00,
2013-09-15 04:34:00,78.4,71.0,29.91,ESE,110,0.0,-999.0,77,-99.99,,,0.00,weatherlink.com 1.10,2013-09-15 08:34:00,
2013-09-15 04:49:00,78.6,72.0,29.92,ESE,107,0.0,-999.0,79,-99.99,,,0.00,weatherlink.com 1.10,2013-09-15 08:49:00,
2013-09-15 05:04:00,78.8,72.0,29.92,ESE,117,0.0,-999.0,79,-99.99,,,0.00,weatherlink.com 1.10,2013-09-15 09:04:00,
2013-09-15 05:19:00,78.7,72.0,29.92,South,187,0.0,-999.0,80,-99.99,,,0.00,weatherlink.com 1.10,2013-09-15 09:19:00,
2013-09-15 05:34:00,78.5,73.0,29.92,South,188,0.0,-999.0,82,-99.99,,,0.00,weatherlink.com 1.10,2013-09-15 09:34:00,
2013-09-15 05:49:00,78.4,73.0,29.93,South,189,0.0,-999.0,84,-99.99,,,0.00,weatherlink.com 1.10,2013-09-15 09:49:00,
2013-09-15 06:04:00,78.2,73.0,29.93,South,186,0.0,-999.0,84,-99.99,,,0.00,weatherlink.com 1.10,2013-09-15 10:04:00,
2013-09-15 06:19:00,78.1,73.0,29.94,South,187,0.0,-999.0,85,-99.99,,,0.00,weatherlink.com 1.10,2013-09-15 10:19:00,
2013-09-15 06:34:00,78.2,74.0,29.95,South,187,0.0,-999.0,86,-99.99,,,0.00,weatherlink.com 1.10,2013-09-15 10:34:00,
2013-09-15 06:49:00,78.0,74.0,29.95,South,187,0.0,-999.0,86,-99.99,,,0.00,weatherlink.com 1.10,2013-09-15 10:49:00,
2013-09-15 07:04:00,77.7,74.0,29.95,South,188,0.0,-999.0,88,-99.99,,,0.00,weatherlink.com 1.10,2013-09-15 11:04:00,
2013-09-15 07:19:00,77.5,74.0,29.96,SW,217,1.0,-999.0,89,-99.99,,,0.00,weatherlink.com 1.10,2013-09-15 11:19:00,
2013-09-15 07:34:00,77.4,74.0,29.96,SW,225,0.0,-999.0,90,-99.99,,,0.00,weatherlink.com 1.10,2013-09-15 11:34:00,
2013-09-15 07:49:00,78.1,75.0,29.97,SW,225,0.0,-999.0,90,-99.99,,,0.00,weatherlink.com 1.10,2013-09-15 11:49:00,
2013-09-15 08:04:00,79.9,76.0,29.97,WNW,288,0.0,-999.0,88,-99.99,,,0.00,weatherlink.com 1.10,2013-09-15 12:04:00,
2013-09-15 08:19:00,80.3,77.0,29.98,NNE,30,1.0,-999.0,88,-99.99,,,0.00,weatherlink.com 1.10,2013-09-15 12:19:00,
2013-09-15 08:34:00,82.7,78.0,29.98,ESE,111,4.0,-999.0,85,-99.99,,,0.00,weatherlink.com 1.10,2013-09-15 12:34:00,
2013-09-15 08:49:00,84.6,78.0,29.98,ENE,77,1.0,-999.0,81,-99.99,,,0.00,weatherlink.com 1.10,2013-09-15 12:49:00,
2013-09-15 09:04:00,85.2,78.0,29.98,East,98,4.0,-999.0,80,-99.99,,,0.00,weatherlink.com 1.10,2013-09-15 13:04:00,
2013-09-15 09:19:00,86.0,78.0,29.99,East,84,2.0,-999.0,78,-99.99,,,0.00,weatherlink.com 1.10,2013-09-15 13:19:00,
2013-09-15 09:34:00,86.7,78.0,29.99,East,96,4.0,-999.0,76,-99.99,,,0.00,weatherlink.com 1.10,2013-09-15 13:34:00,
2013-09-15 09:49:00,87.7,79.0,30.00,ESE,115,8.0,-999.0,75,-99.99,,,0.00,weatherlink.com 1.10,2013-09-15 13:49:00,
2013-09-15 10:04:00,87.3,79.0,30.01,ESE,118,6.0,-999.0,75,-99.99,,,0.00,weatherlink.com 1.10,2013-09-15 14:04:00,
2013-09-15 10:19:00,87.4,79.0,30.01,NNE,30,7.0,-999.0,76,-99.99,,,0.00,weatherlink.com 1.10,2013-09-15 14:19:00,
2013-09-15 10:34:00,87.2,79.0,30.02,ESE,109,6.0,-999.0,76,-99.99,,,0.00,weatherlink.com 1.10,2013-09-15 14:34:00,
2013-09-15 10:49:00,85.4,79.0,30.02,ENE,71,4.0,-999.0,81,-99.99,,,0.00,weatherlink.com 1.10,2013-09-15 14:49:00,
2013-09-15 11:04:00,83.6,77.0,30.02,East,101,5.0,-999.0,79,-99.99,,,0.00,weatherlink.com 1.10,2013-09-15 15:04:00,
2013-09-15 11:19:00,80.0,76.0,30.04,SSE,159,2.0,-999.0,86,-99.99,,,0.05,weatherlink.com 1.10,2013-09-15 15:19:00,
2013-09-15 11:34:00,78.9,76.0,30.03,South,187,0.0,-999.0,89,-99.99,,,0.08,weatherlink.com 1.10,2013-09-15 15:34:00,
2013-09-15 11:49:00,78.6,76.0,30.03,ESE,123,0.0,-999.0,90,-99.99,,,0.09,weatherlink.com 1.10,2013-09-15 15:49:00,
2013-09-15 12:04:00,79.2,76.0,30.03,East,98,2.0,-999.0,91,-99.99,,,0.09,weatherlink.com 1.10,2013-09-15 16:04:00,
2013-09-15 12:19:00,79.4,76.0,30.02,SSE,149,5.0,-999.0,90,-99.99,,,0.09,weatherlink.com 1.10,2013-09-15 16:19:00,
2013-09-15 12:34:00,79.8,77.0,30.02,ESE,115,0.0,-999.0,90,-99.99,,,0.09,weatherlink.com 1.10,2013-09-15 16:34:00,
2013-09-15 12:49:00,80.1,77.0,30.04,SSE,161,4.0,-999.0,90,-99.99,,,0.09,weatherlink.com 1.10,2013-09-15 16:49:00,
2013-09-15 13:04:00,80.0,77.0,30.03,SSE,161,0.0,-999.0,90,-99.99,,,0.09,weatherlink.com 1.10,2013-09-15 17:04:00,
2013-09-15 13:19:00,79.9,77.0,30.02,SE,140,0.0,-999.0,91,-99.99,,,0.09,weatherlink.com 1.10,2013-09-15 17:19:00,
2013-09-15 13:34:00,79.8,77.0,30.00,SSE,152,1.0,-999.0,91,-99.99,,,0.09,weatherlink.com 1.10,2013-09-15 17:34:00,
2013-09-15 13:49:00,79.9,77.0,30.00,SSE,153,1.0,-999.0,91,-99.99,,,0.09,weatherlink.com 1.10,2013-09-15 17:49:00,
2013-09-15 14:04:00,80.0,77.0,30.00,SE,126,4.0,-999.0,91,-99.99,,,0.09,weatherlink.com 1.10,2013-09-15 18:04:00,
2013-09-15 14:19:00,80.5,77.0,29.99,SE,134,4.0,-999.0,90,-99.99,,,0.09,weatherlink.com 1.10,2013-09-15 18:19:00,
2013-09-15 14:34:00,81.0,78.0,29.98,ESE,118,0.0,-999.0,89,-99.99,,,0.09,weatherlink.com 1.10,2013-09-15 18:34:00,
2013-09-15 14:49:00,81.3,78.0,29.98,ESE,106,0.0,-999.0,90,-99.99,,,0.09,weatherlink.com 1.10,2013-09-15 18:49:00,
2013-09-15 15:04:00,81.4,78.0,29.99,SE,136,0.0,-999.0,90,-99.99,,,0.09,weatherlink.com 1.10,2013-09-15 19:04:00,
2013-09-15 15:19:00,81.5,78.0,30.00,SE,138,0.0,-999.0,90,-99.99,,,0.09,weatherlink.com 1.10,2013-09-15 19:19:00,
2013-09-15 15:34:00,81.7,79.0,30.00,SE,138,0.0,-999.0,90,-99.99,,,0.09,weatherlink.com 1.10,2013-09-15 19:34:00,
2013-09-15 15:49:00,81.8,78.0,29.98,SE,136,0.0,-999.0,89,-99.99,,,0.09,weatherlink.com 1.10,2013-09-15 19:49:00,
2013-09-15 16:05:00,81.8,79.0,29.97,ESE,111,1.0,-999.0,90,-99.99,,,0.10,weatherlink.com 1.10,2013-09-15 20:05:00,
2013-09-15 16:19:00,81.8,79.0,29.97,SSE,157,1.0,-999.0,91,-99.99,,,0.10,weatherlink.com 1.10,2013-09-15 20:19:00,
2013-09-15 16:34:00,81.9,78.0,29.96,SSE,163,5.0,-999.0,89,-99.99,,,0.10,weatherlink.com 1.10,2013-09-15 20:34:00,
2013-09-15 16:49:00,82.5,79.0,29.96,SSE,156,1.0,-999.0,88,-99.99,,,0.10,weatherlink.com 1.10,2013-09-15 20:49:00,
2013-09-15 17:04:00,82.7,79.0,29.97,East,98,0.0,-999.0,88,-99.99,,,0.10,weatherlink.com 1.10,2013-09-15 21:04:00,
2013-09-15 17:20:00,83.0,80.0,29.98,ENE,63,0.0,-999.0,89,-99.99,,,0.10,weatherlink.com 1.10,2013-09-15 21:20:00,
2013-09-15 17:35:00,83.1,79.0,29.98,SE,134,0.0,-999.0,88,-99.99,,,0.10,weatherlink.com 1.10,2013-09-15 21:35:00,
2013-09-15 17:50:00,83.3,80.0,29.98,SSE,156,1.0,-999.0,89,-99.99,,,0.10,weatherlink.com 1.10,2013-09-15 21:50:00,
2013-09-15 18:05:00,83.3,80.0,29.99,SSE,164,0.0,-999.0,89,-99.99,,,0.10,weatherlink.com 1.10,2013-09-15 22:05:00,
2013-09-15 18:20:00,83.4,80.0,30.00,West,259,0.0,-999.0,88,-99.99,,,0.10,weatherlink.com 1.10,2013-09-15 22:20:00,
2013-09-15 18:35:00,83.2,79.0,30.01,WNW,303,0.0,-999.0,88,-99.99,,,0.10,weatherlink.com 1.10,2013-09-15 22:35:00,
2013-09-15 18:50:00,83.0,79.0,30.01,WNW,300,0.0,-999.0,88,-99.99,,,0.10,weatherlink.com 1.10,2013-09-15 22:50:00,
2013-09-15 19:05:00,82.7,79.0,30.02,ESE,106,1.0,-999.0,88,-99.99,,,0.10,weatherlink.com 1.10,2013-09-15 23:05:00,
2013-09-15 19:20:00,82.5,78.0,30.02,ESE,113,1.0,-999.0,87,-99.99,,,0.10,weatherlink.com 1.10,2013-09-15 23:20:00,
2013-09-15 19:35:00,82.5,78.0,30.02,East,96,0.0,-999.0,86,-99.99,,,0.10,weatherlink.com 1.10,2013-09-15 23:35:00,
2013-09-15 19:50:00,82.2,78.0,30.02,NE,42,0.0,-999.0,87,-99.99,,,0.10,weatherlink.com 1.10,2013-09-15 23:50:00,
2013-09-15 20:05:00,80.0,75.0,30.04,NE,39,0.0,-999.0,85,-99.99,,,0.10,weatherlink.com 1.10,2013-09-16 00:05:00,
2013-09-15 20:20:00,79.3,75.0,30.04,NE,45,0.0,-999.0,85,-99.99,,,0.10,weatherlink.com 1.10,2013-09-16 00:20:00,
2013-09-15 20:35:00,78.9,74.0,30.04,NNE,29,2.0,-999.0,84,-99.99,,,0.10,weatherlink.com 1.10,2013-09-16 00:35:00,
2013-09-15 20:50:00,78.5,74.0,30.04,NE,43,0.0,-999.0,86,-99.99,,,0.10,weatherlink.com 1.10,2013-09-16 00:50:00,
2013-09-15 21:05:00,78.5,74.0,30.03,NNW,333,1.0,-999.0,85,-99.99,,,0.10,weatherlink.com 1.10,2013-09-16 01:05:00,
2013-09-15 21:20:00,77.9,74.0,30.04,NNE,13,1.0,-999.0,86,-99.99,,,0.10,weatherlink.com 1.10,2013-09-16 01:20:00,
2013-09-15 21:35:00,77.4,73.0,30.03,WNW,287,0.0,-999.0,87,-99.99,,,0.10,weatherlink.com 1.10,2013-09-16 01:35:00,
2013-09-15 21:50:00,77.1,74.0,30.02,NE,53,0.0,-999.0,89,-99.99,,,0.10,weatherlink.com 1.10,2013-09-16 01:50:00,
2013-09-15 22:05:00,77.2,74.0,30.02,NE,47,1.0,-999.0,90,-99.99,,,0.10,weatherlink.com 1.10,2013-09-16 02:05:00,
2013-09-15 22:20:00,77.6,75.0,30.01,ENE,69,0.0,-999.0,92,-99.99,,,0.10,weatherlink.com 1.10,2013-09-16 02:20:00,
2013-09-15 22:35:00,77.9,76.0,30.01,East,93,0.0,-999.0,93,-99.99,,,0.10,weatherlink.com 1.10,2013-09-16 02:35:00,
2013-09-15 22:50:00,78.0,76.0,30.02,SE,140,0.0,-999.0,93,-99.99,,,0.10,weatherlink.com 1.10,2013-09-16 02:50:00,
2013-09-15 23:05:00,78.0,76.0,30.01,SE,126,0.0,-999.0,93,-99.99,,,0.10,weatherlink.com 1.10,2013-09-16 03:05:00,
2013-09-15 23:20:00,78.4,76.0,30.01,ESE,115,0.0,-999.0,92,-99.99,,,0.10,weatherlink.com 1.10,2013-09-16 03:20:00,
2013-09-15 23:35:00,79.7,76.0,30.01,ESE,112,1.0,-999.0,88,-99.99,,,0.10,weatherlink.com 1.10,2013-09-16 03:35:00,
2013-09-15 23:50:00,80.3,76.0,30.00,ESE,115,0.0,-999.0,87,-99.99,,,0.10,weatherlink.com 1.10,2013-09-16 03:50:00,